CST,Max TemperatureF,Mean TemperatureF,Min TemperatureF,Max Dew PointF,MeanDew PointF,Min DewpointF,Max Humidity, Mean Humidity, Min Humidity, Max Sea Level PressureIn, Mean Sea Level PressureIn, Min Sea Level PressureIn, Max VisibilityMiles, Mean VisibilityMiles, Min VisibilityMiles, Max Wind SpeedMPH, Mean Wind SpeedMPH, Max Gust SpeedMPH,PrecipitationIn, CloudCover, Events, WindDirDegrees
2013-2-1,-4,-14,-23,-9,-19,-31,84,76,69,30.24,30.12,30.04,10,9,2,14,5,,0.00,3,Snow,163
2013-2-2,6,-8,-22,1,-15,-27,85,78,69,30.17,30.10,30.01,10,10,5,14,3,,0.00,3,Snow,277
2013-2-3,6,0,-7,1,-6,-13,85,75,66,30.08,30.05,30.03,10,10,10,14,6,17,0.00,5,,326
2013-2-4,15,5,-5,12,3,-9,93,84,78,30.04,29.79,29.52,10,7,0,26,12,29,0.00,7,Snow,171
2013-2-5,14,4,-5,10,-3,-9,92,78,66,30.05,29.92,29.58,10,9,4,16,11,9,0.00,6,Snow,334
2013-2-6,19,10,-2,16,9,-6,93,86,78,30.18,30.00,29.93,10,7,0,13,9,,0.03,6,Snow,92
2013-2-7,8,0,-7,7,-1,-11,92,86,78,30.31,30.27,30.19,10,9,1,7,3,,0.00,4,,8
2013-2-8,19,10,1,19,12,-2,100,92,79,30.29,30.16,30.01,10,8,0,20,9,,0.00,5,Fog-Snow,161
2013-2-9,26,24,21,25,23,18,100,94,86,30.00,29.91,29.87,10,6,4,17,12,21,0.00,8,,193
2013-2-10,30,26,23,27,25,21,100,91,80,29.89,29.78,29.69,10,8,2,24,9,31,0.00,8,Snow,31
2013-2-11,23,14,6,21,13,3,93,87,79,29.95,29.88,29.75,10,8,1,26,17,33,0.00,6,Snow,314
2013-2-12,28,16,5,27,16,1,100,89,79,29.81,29.72,29.66,10,10,5,17,10,,0.00,3,,199
2013-2-13,32,18,5,23,14,3,100,91,79,29.80,29.67,29.61,10,7,0,13,4,,0.00,5,Fog-Snow,330
2013-2-14,17,9,1,12,3,-2,92,82,73,30.25,30.09,29.80,10,10,10,16,11,,0.00,2,,336
2013-2-15,14,2,-11,9,-3,-15,92,85,77,30.35,30.28,30.19,10,9,2,14,3,,0.00,3,Snow,275
2013-2-16,17,4,-9,16,1,-15,93,88,77,30.19,30.04,29.87,10,7,1,25,9,,0.00,5,Snow,157
2013-2-17,28,22,17,28,23,16,100,95,86,29.86,29.58,29.44,7,3,0,30,23,36,0.07,7,Snow,178
2013-2-18,26,10,-7,27,4,-13,100,88,77,30.16,29.84,29.49,5,1,0,40,25,52,0.01,8,Snow,346
2013-2-19,-5,-10,-16,-13,-17,-22,84,74,65,30.50,30.38,30.18,10,6,2,26,20,33,0.00,0,,343
2013-2-20,5,-8,-20,-6,-15,-26,77,67,56,30.51,30.46,30.36,10,10,10,15,5,,0.00,0,,90
2013-2-21,17,8,0,9,-1,-11,79,62,48,30.41,30.34,30.21,10,10,10,17,11,18,0.00,1,,121
2013-2-22,17,11,5,14,6,-2,86,77,62,30.20,30.04,29.91,10,10,10,13,8,,0.00,4,,36
2013-2-23,21,18,15,19,16,12,100,93,79,29.93,29.88,29.84,10,8,0,13,4,,0.00,8,Fog,170
2013-2-24,21,16,10,19,14,9,100,94,86,30.00,29.97,29.94,10,6,0,16,8,,0.00,6,Fog-Snow,169
2013-2-25,24,12,1,21,10,-2,100,90,85,30.01,29.97,29.91,10,8,4,22,8,,0.00,0,Snow,164
2013-2-26,21,16,10,21,14,9,100,95,92,30.10,30.02,29.94,10,4,0,16,11,,0.00,4,Fog-Snow,165
2013-2-27,28,16,5,25,14,3,100,90,80,30.24,30.15,30.09,10,7,0,23,7,28,0.00,2,Fog-Snow,343
2013-2-28,23,14,5,18,14,1,100,87,79,30.35,30.31,30.24,10,10,10,14,7,,0.00,2,,349